Location: Arbon
(43.0005°N, 0.7472°E)
Time: 05:08:11
(UTC+00:00)

Vanguard 2 Rocket - Pass Details

Date: 21 June 2021
Orbit: 554 x 3325 km, 32.9° (Epoch: 26 July)

Event Time Altitude Azimuth Distance (km) Brightness Sun altitude
Rises 01:38:26 0° 275° (W) 5,942 10.9 -19.7°
Reaches altitude 10° 01:45:33 10° 253° (WSW) 4,217 9.9 -19.2°
Enters shadow 01:46:34 11° 249° (WSW) 4,010 9.7 -19.1°
